Regional Weather Roundup
Issued by NWS Midland/Odessa, TX

Home | Current Version | Previous Version | Text Only | Print | Product List | Glossary On
Versions: 1 2 3 4 5 6 7 8 9 10 11 12 13 14 15 16 17 18 19 20 21 22 23 24 25 26 27 28 29 30 31 32 33 34 35 36 37 38 39 40 41 42 43 44 45 46 47 48 49 50
000
ASUS44 KMAF 230710
RWRMAF
MIDLAND AREA WEATHER ROUNDUP
NATIONAL WEATHER SERVICE MIDLAND TX
200 AM CDT WED MAY 23 2018

...IN SOUTHWEST TEXAS AND SOUTHEAST NEW MEXICO...

CITY           SKY/WX    TMP DP  RH WIND       PRES   REMARKS
ALPINE         CLEAR     67  59  75 SE6       30.05F
ANDREWS        FAIR      73  61  66 SE14      29.98S
ARTESIA        CLOUDY    73  61  64 NW10      29.98R
BIG SPRING     CLOUDY    74  61  63 SE14      29.99S
CARLSBAD       CLEAR     71  60  68 S9        29.92S
DRYDEN         NOT AVBL
FORT STOCKTON  PTCLDY    73  63  70 SE16G25   29.93S
GUAD PASS      CLEAR     66  56  70 NE31G38   30.03S
HOBBS          CLOUDY    72  59  64 SE15      29.98S
LAMESA         FAIR      72  59  64 SE17      29.99S
MARFA          NOT AVBL
MIDLAND AIRPK    N/A     76  61  59 SE18G24   29.97S
MIDLAND INTL   PTCLDY    75  62  64 SE20G28   29.96S
ODESSA           N/A     74  62  66 SE17      29.97S
PECOS          CLOUDY    75  61  60 E14       29.90F
PRESIDIO       FAIR      78  57  48 NE12G21   29.89R
SEMINOLE       CLOUDY    71  58  64 SE8       30.00S
SNYDER         CLOUDY    73  61  66 SE9       29.98S
WINK             N/A    N/A N/A N/A MISG        N/A
$$
...OTHER STATIONS IN TEXAS...

CITY           SKY/WX    TMP DP  RH WIND       PRES   REMARKS
ABILENE        PTCLDY    72  65  78 SE13      29.98F
AMARILLO       CLOUDY    65  56  72 SE9       30.03R
AUSTIN         CLEAR     68  67  96 CALM      30.00R
BROWNSVILLE    FAIR      77  75  93 E5        29.93F
CORPUS CHRISTI PTCLDY    75  74  96 SE6       29.95S
DALLAS FTW     PTCLDY    74  67  78 SE3       29.98S
DEL RIO        CLEAR     77  67  71 SE14G23   29.91F
EL PASO        PTCLDY    77  54  44 NE7       29.91S
HOUSTON INT    FAIR      71  71 100 CALM      29.99S
LUBBOCK        PTCLDY    70  59  68 SE13      30.00R
SAN ANGELO     PTCLDY    71  64  78 SE7       29.97F
SAN ANTONIO    MOCLDY    73  68  84 SE9       30.00S
WACO           CLEAR     74  67  78 SE5       29.99S
WICHITA FALLS  PTCLDY    70  68  93 S7        29.99F
$$
...OTHER LOCATIONS IN NEW MEXICO...

CITY           SKY/WX    TMP DP  RH WIND       PRES   REMARKS
ALAMOGORDO     PTCLDY    75  50  41 S10       29.93R
ALBUQUERQUE    CLEAR     63  17  17 SE7       29.99S
CANNON AFB     CLOUDY    66  66 100 W8        30.07R THUNDER
CLOVIS         MOCLDY    66  58  75 SE13      30.04F
HOLLOMAN AFB   CLEAR     74  54  50 S13       29.95R
ROSWELL        LGT RAIN  68  64  87 CALM      29.99S
RUIDOSO        CLOUDY    57  55  94 SE6       30.17F
SANTA FE       CLEAR     59  54  83 SE12      30.07R
TRUTH OR CONSE CLEAR     63   9  12 E3        29.95R
TUCUMCARI      CLOUDY    70  57  63 S20G26    29.96F
$$




USA.gov is the U.S. government's official web portal to all federal, state and local government web resources and services.